Погода в Сойге

Россия / Архангельская область     61°39′34″N   48°07′48″E
темп.,
°C
ветер,
м/с
пор.,
м/с
влажн.,
%
обл.,
%
осадки,
мм/ч
давл.,
гПа
погр.,
м
3 марта, ср
ср300:00−5сз41089100 0.2 995688
03:00−7зсз3119399 0.3 996520
06:00−6зсз41292100 0.1 995693
09:00−6зсз51092100 0.5 995762
12:00−4зсз51088100 0.3 995835
15:00−4з4887100 0.4 995866
18:00−7з41092100 0.1 995609
21:00−8з289498 0.1 994256
4 марта, чт
чт400:00−11зюз239699 0.0 99274
03:00−13зюз1297100 0.0 99221
06:00−13з119799 0.0 99020
09:00−10ссз119491 0.0 990117
12:00−6сз128797 0.1 990469
15:00−6сз239098 0.2 991456
18:00−11ссз4893100 0.3 993388
21:00−14ссз2795100 0.6 995309
5 марта, пт
пт500:00−17сз249785 0.0 99696
03:00−18сз259782 0.1 997133
06:00−19зсз229774 0.0 99957
09:00−17сз249380 0.1 1000264
12:00−13зсз248998 0.1 1001426
15:00−12зсз358999 0.1 1003604
18:00−15зсз269595 0.1 1004224
21:00−16зсз259695 0.2 1006170
6 марта, сб
сб600:00−17зсз259786 0.1 1006150
03:00−19зсз249784 0.1 100785
06:00−19зсз2697100 0.1 1008202
09:00−19зсз259396 0.1 1008265
12:00−16зсз238688 0.0 1008681
15:00−16з348494 0.1 1008847
18:00−20з2296100 0.1 100820
21:00−23з129779 0.1 100720
7 марта, вс
вс700:00−23ююз12985 0.0 100620
03:00−22ююв229948 0.1 100523
06:00−23ююв2310098 0.0 100442
09:00−18ююв359598 0.1 1002232
12:00−13юв478796 0.0 1001471
15:00−11юв498498 0.0 999666
18:00−13вюв41192100 0.0 998625
21:00−13вюв41094100 0.4 998629